Tracking 18647 objects as of 29-May-2017
HD Live streaming from Space Station
objects crossing your sky now

COSMOS 1367

Track COSMOS 1367 now!
COSMOS 1367 is classified as:


NORAD ID: 13205
Int'l Code: 1982-045A
Perigee: 6,973.0 km
Apogee: 33,409.0 km
Inclination: 70.7 °
Period: 718.0 minutes
Semi major axis: 26561 km
RCS: 15.3973 m2 (large)
Launch date: May 20, 1982
Source: Commonwealth of Independent States (former USSR) (CIS)
Launch site: PLESETSK MISSILE AND SPACE COMPLEX (PKMTR)
Your satellite tracking list
Your tracking list is empty





NASA's NSSDC Master Catalog

Two Line Element Set (TLE):
1 13205U 82045A   17148.89233712 +.00000111 +00000-0 +00000-0 0  9999
2 13205 070.7006 210.0454 4976271 062.4136 289.7237 02.00544899256504
Source of the keplerian elements: AFSPC